Location: Riverside Cemetery
(38.3047°N, 99.7773°W)
Time: 11:12:20
(UTC+00:00)

SL-08 RB Rocket - Pass Details

Date: 19 September 2020
Orbit: 646 x 684 km, 97.8° (Epoch: 25 October)

Event Time Altitude Azimuth Distance (km) Brightness Sun altitude
Exits shadow 02:05:13 19° 152° (SSE) 1,571 5.2 -17.0°
Maximum altitude 02:08:24 64° 75° (ENE) 747 3.7 -17.6°
Drops below altitude 10° 02:12:56 10° 355° (N) 2,097 6.5 -18.5°
Sets 02:15:10 0° 352° (N) 3,008 7.4 -18.9°
